Skip Page Navigation
NASA JPL Caltech
NASA Logo - Jet Propulsion Laboratory + View the NASA Portal
+ Center for Near-Earth Object Studies
JPL Home Earth Solar System Stars & Galaxies Technology
JPL Solar System Dynamics
BODIES ORBITS EPHEMERIDES TOOLS PHYSICAL DATA DISCOVERY FAQ SITE MAP
JPL Small-Body Database Browser
Search: [ help ]  
347550 (2000 SA126)
Classification: Main-belt Asteroid          SPK-ID: 2347550
Ephemeris | Orbit Diagram | Orbital Elements | Mission Design | Physical Parameters | Discovery Circumstances ]

[ show orbit diagram ]
Orbital Elements at Epoch 2459000.5 (2020-May-31.0) TDB
Reference: JPL 8 (heliocentric ecliptic J2000)
 Element Value Uncertainty (1-sigma)   Units 
e .2035902269768036 1.266e-07  
a 2.45837187272929 1.81e-08 au
q 1.957871385166944 3.219e-07 au
i 1.479504847437843 8.0626e-06 deg
node 32.29138940409774 0.00036694 deg
peri 315.0161972563095 0.00036819 deg
M 54.13950321682656 2.6501e-05 deg
tp 2458788.770408324379
(2019-Nov-01.27040832)
0.00010274 TDB
period 1407.893469172685
3.85
1.5548e-05
4.257e-08
d
yr
n .2557011648129495 2.8239e-09 deg/d
Q 2.958872360291636 2.1784e-08 au
  Orbit Determination Parameters
   # obs. used (total)      166  
   data-arc span      8450 days (23.13 yr)  
   first obs. used      1996-09-07  
   last obs. used      2019-10-27  
   planetary ephem.      DE431  
   SB-pert. ephem.      SB431-N16  
   condition code      0  
   norm. resid. RMS      .55892  
   source      ORB  
   producer      Otto Matic  
   solution date      2019-Nov-08 10:33:56  

Additional Information
 Earth MOID = .951464 au 
 Jupiter MOID = 2.46091 au 
 T_jup = 3.462 
[ hide covariance matrix ]
Orbital Elements at Epoch 2457150.5 (2015-May-08.0) TDB
Reference: JPL 8 (heliocentric ecliptic J2000)
 Element Value Uncertainty (1-sigma)   Units 
e .2051917733009483 1.2628e-07  
q 1.953366048020443 3.2156e-07 au
tp 2457381.394069182474
(2015-Dec-24.89406918)
9.6112e-05 TDB
node 32.32132527845496 0.00036617 deg
peri 315.0977083033536 0.0003674 deg
i 1.482310463669576 8.0713e-06 deg
  Orbit Determination Parameters
   # obs. used (total)      166  
   data-arc span      8450 days (23.13 yr)  
   first obs. used      1996-09-07  
   last obs. used      2019-10-27  
   planetary ephem.      DE431  
   SB-pert. ephem.      SB431-N16  
   condition code      0  
   norm. resid. RMS      .55892  
   source      ORB  
   producer      Otto Matic  
   solution date      2019-Nov-08 10:33:56  

Additional Information
 Jupiter MOID = 2.46091 au 
 T_jup = 3.462 
Orbit Covariance (6×6)
  e q tp node peri i
e 1.594624921741988E-14 -4.058710830433645E-14 -5.446365167806483E-12 -7.328752444090168E-14 -1.618936417083299E-12 -1.368833853195574E-14
q -4.058710830433645E-14 1.034016389778886E-13 1.371317076270855E-11 1.879860210780893E-13 4.060322863198084E-12 3.498594133236285E-14
tp -5.446365167806483E-12 1.371317076270855E-11 9.23760655433273E-9 6.863903690107477E-11 2.960999558763411E-9 6.526579098255687E-12
node -7.328752444090168E-14 1.879860210780893E-13 6.863903690107477E-11 1.340812218801239E-7 -1.340143346657643E-7 -7.886369044625797E-10
peri -1.618936417083299E-12 4.060322863198084E-12 2.960999558763411E-9 -1.340143346657643E-7 1.349823823756497E-7 7.904384101878263E-10
i -1.368833853195574E-14 3.498594133236285E-14 6.526579098255687E-12 -7.886369044625797E-10 7.904384101878263E-10 6.514530470316741E-11

Ephemeris | Orbit Diagram | Orbital Elements | Mission Design | Physical Parameters | Discovery Circumstances ]

Physical Parameter Table
Parameter Symbol Value Units Sigma Reference Notes
absolute magnitude H 17.2   n/a MPO494815  

347550 (2000 SA126)          Discovered 2000-Sep-24 by LINEAR at Socorro
Reference: 20121228/Numbers.arcLast Updated: 2013-01-02

Alternate Designations
 2000 SA126 = 2004 TC333 
Ephemeris | Orbit Diagram | Orbital Elements | Mission Design | Physical Parameters | Discovery Circumstances ]
ABOUT SSD CREDITS/AWARDS PRIVACY/COPYRIGHT GLOSSARY LINKS
FirstGov 2020-Jul-07 17:14 UT
(server date/time)  
NASA Home Page
Site Manager:   Ryan S. Park
Webmaster  Alan B. Chamberlin